Flag for U.S.A. Weather past 2 weeks in Pomona, California, U.S.A.

Now
54 °F

Fog.


Feels Like: 54 °F
Forecast: 56 / 82 °F
Wind: No wind

Location: Chino Airport

Current Time: May 28, 2015 at 5:41:48 AM

Latest Report: May 28, 2015 at 4:53 AM


Visibility: 4 mi

Pressure: 29.96 "Hg

Humidity: 93%

Dew point: 52 °F

Location of PomonaLocation

Historic Weather in Pomona — Graph

°F

Pomona temperature yesterday

Maximum temperature yesterday: 80 °F (at 2:53 PM)
Minimum temperature yesterday: 57 °F (at 11:53 PM)
Average temperature yesterday: 66 °F

Past Weeks' High & Low Weather Summary

 TemperatureHumidityPressure
High80 °F (May 27, 2:53 PM)97% (May 15, 4:53 AM)30.10 "Hg (May 15, 4:53 AM)
Low50 °F (May 16, 5:53 AM)35% (May 13, 1:53 PM)29.82 "Hg (May 15, 4:53 PM)
Average62 °F68%29.97 "Hg
* Reported May 13 3:53 AM — May 28 3:53 AM, Pomona, Weather by CustomWeather, © 2015

Note: Actual official high and low records may vary slightly from our data, if they occured in-between our weather recording intervals... More about our weather records

Advertising

Pomona weather history for previous 24 hours

 ConditionsComfort  
Time TempWeatherWind HumidityBarometerVisibility
3:53 AM
Thu, May 28
55 °FFog.No wind90%29.95 "Hg5 mi
2:53 AM56 °FClear.5 mph87%29.95 "Hg7 mi
1:53 AM57 °FClear.No wind87%29.96 "Hg7 mi
12:53 AM57 °FClear.5 mph83%29.97 "Hg8 mi
11:53 PM
Wed, May 27
57 °FClear.7 mph83%29.99 "Hg8 mi
10:53 PM58 °FClear.No wind87%29.98 "Hg7 mi
9:53 PM60 °FClear.3 mph80%29.98 "Hg8 mi
8:53 PM63 °FClear.10 mph73%29.96 "Hg10 mi
7:53 PM66 °FPassing clouds.13 mph65%29.95 "Hg10 mi
6:53 PM70 °FSunny.14 mph57%29.93 "Hg10 mi
5:53 PM74 °FSunny.17 mph50%29.92 "Hg10 mi
4:53 PM78 °FSunny.16 mph43%29.91 "Hg10 mi
3:53 PM80 °FSunny.16 mph41%29.92 "Hg10 mi
2:53 PM80 °FSunny.10 mph39%29.93 "Hg8 mi
1:53 PM78 °FSunny.9 mph43%29.95 "Hg7 mi
12:53 PM75 °FSunny.5 mph48%29.97 "Hg8 mi
11:53 AM71 °FSunny.No wind53%29.99 "Hg8 mi
10:53 AM68 °FPartly sunny.5 mph59%30.00 "Hg8 mi
9:53 AM64 °FOvercast.6 mph68%30.00 "Hg6 mi
8:53 AM63 °FOvercast.3 mph70%29.99 "Hg6 mi
7:53 AM62 °FOvercast.5 mph75%29.99 "Hg5 mi
6:53 AM62 °FOvercast.3 mph78%29.98 "Hg4 mi
5:53 AM61 °FOvercast.No wind78%29.97 "Hg7 mi
Weather by CustomWeather, © 2015

See weather overviewHow to use our weather pages